Helicity
-12 -10 16 32 32 47 56 56 63 73 79 80 83 85 79 81 75 67 61 55 45 45 40 38 36 36 37 42 37 31 27 21 8 -3 -19 -32 -23 -4 16 21 19 25 18
21 21 41 44 43 66 75 73 75 80 84 90 90 76 73 74 75 73 74 71 58 47 45 43 44 46 47 50 46 37 33 27 18 2 -5 -8 -17 -3 16 16 12 17 11
60 51 56 50 56 85 97 92 90 91 88 84 76 77 73 79 91 96 97 94 95 92 87 71 66 68 67 64 60 54 48 46 37 29 15 7 12 4 15 24 27 20 17
64 57 56 57 74 96 109 111 116 108 95 90 84 82 75 83 95 104 111 103 99 97 94 91 91 80 71 67 59 57 52 47 42 47 42 25 24 9 27 53 52 44 37
68 54 55 60 75 92 110 118 109 123 138 125 128 122 121 124 134 126 127 120 113 111 106 99 99 86 71 61 61 62 55 49 49 63 73 60 46 23 16 21 53 53 45
95 87 82 80 88 117 130 145 150 140 132 130 142 138 141 136 132 128 121 124 121 120 117 124 118 115 99 76 69 59 57 56 63 69 81 85 68 37 31 41 54 55 55
112 88 80 77 101 137 160 156 139 151 170 168 150 146 143 133 129 135 138 140 140 138 138 142 143 142 150 154 142 117 105 106 86 82 101 115 107 80 41 33 48 52 56
88 92 89 106 141 166 160 157 159 181 179 175 154 167 160 162 149 147 142 139 133 128 128 131 127 125 128 131 128 129 121 124 88 91 103 118 158 140 88 59 42 74 55
89 91 98 121 148 170 176 192 194 187 171 158 154 143 154 153 158 153 144 130 124 116 116 111 108 103 105 111 117 124 118 142 108 101 91 87 151 165 155 164 116 46 48
119 121 127 136 158 182 184 198 186 179 163 155 154 143 146 154 149 143 137 126 117 115 107 106 107 106 103 113 129 132 118 125 101 106 82 97 134 149 163 141 122 114 29
166 156 155 154 159 186 209 181 176 168 157 157 156 152 157 127 127 134 144 148 136 131 132 127 125 127 125 134 148 149 133 91 96 104 96 151 146 137 150 155 185 161 136
187 165 158 157 145 169 186 195 184 181 181 162 146 144 136 134 130 129 151 150 154 134 136 130 130 134 131 115 118 139 111 115 113 108 114 187 175 197 229 293 257 192 188
167 174 153 171 160 173 197 211 207 198 187 178 154 140 138 135 118 121 112 110 99 120 88 94 98 100 112 119 138 137 142 133 133 137 159 225 266 221 218 206 238 289 349
218 173 167 199 220 208 213 232 201 202 188 178 152 133 125 133 135 116 98 87 77 63 64 66 70 83 102 101 102 109 121 119 125 129 161 238 252 291 298 254 218 218 241
215 191 202 225 255 251 265 244 227 229 219 186 173 137 119 123 114 96 95 84 66 44 46 52 61 76 93 101 101 110 128 143 158 140 146 230 257 274 260 271 281 248 242
254 236 255 267 275 279 278 265 257 231 213 199 171 137 129 110 112 114 104 91 79 52 50 50 56 68 79 86 106 114 114 119 139 152 139 155 239 250 257 247 233 244 256
272 296 294 307 299 329 316 284 260 244 218 194 166 142 132 127 125 110 98 85 53 44 44 60 74 80 90 88 88 90 115 150 185 183 169 148 163 221 217 228 220 208 208
336 342 351 350 329 343 343 313 286 257 229 196 167 145 145 138 118 110 94 74 51 48 45 50 69 79 102 107 100 115 132 150 155 145 139 108 101 102 127 192 182 215 230
357 356 371 368 373 384 385 350 314 284 255 199 172 163 156 144 124 107 88 60 42 42 51 50 72 68 118 129 97 94 96 124 125 112 128 101 101 83 61 133 154 183 208
365 367 383 398 426 435 441 422 400 348 292 233 208 183 152 127 119 115 102 79 47 53 67 52 60 44 72 74 49 76 71 93 97 89 74 74 70 87 91 116 108 130 194
415 418 429 455 459 528 541 490 429 361 308 273 224 182 169 155 141 119 83 59 32 40 21 19 -30 11 82 89 45 75 88 38 106 55 45 27 40 66 94 99 110 118 117
472 442 450 462 490 501 481 428 387 348 313 279 240 226 189 166 137 116 75 52 31 33 48 43 15 -37 5 64 20 43 101 71 61 50 33 67 63 37 98 99 129 127 104
489 507 487 449 456 452 462 509 532 478 430 355 290 248 200 167 135 98 63 43 46 29 27 32 22 16 1 22 69 22 61 82 76 46 63 34 54 35 41 83 94 82 73
547 525 448 447 439 428 489 522 461 414 346 280 267 234 213 183 144 106 82 64 58 48 62 51 60 55 19 52 22 42 34 31 41 35 56 56 33 25 13 39 30 24 44
656 566 453 437 416 438 478 440 425 377 351 347 328 301 254 201 155 120 98 96 91 69 69 82 94 89 71 55 44 42 56 55 79 49 40 97 44 48 39 26 27 3 29
663 605 547 491 441 429 443 411 396 408 409 387 324 290 238 209 171 140 133 118 98 94 89 100 111 117 87 73 56 58 62 69 80 83 88 92 62 45 11 -4 -7 23 27
Wind_Speed
27 28 30 33 34 34 35 35 34 34 35 35 36 37 37 38 39 39 40 40 41 42 42 43 43 45 45 46 47 47 48 49 50 51 53 51 48 49 49 50 51 53 54
28 28 29 31 32 32 33 33 33 33 33 33 33 34 35 36 36 37 38 39 40 40 40 41 43 44 46 47 47 47 48 49 51 51 54 54 47 44 46 48 49 51 53
26 26 28 30 30 30 30 31 31 31 32 32 33 33 34 35 36 37 37 38 40 40 41 41 42 44 46 47 48 49 50 50 51 53 53 53 51 40 40 42 43 47 49
27 26 26 28 28 29 29 30 31 32 32 32 32 33 33 34 35 36 37 38 39 41 42 42 43 45 46 46 47 49 50 51 51 52 50 50 48 39 18 26 33 36 43
24 25 25 26 27 28 28 29 30 31 32 32 33 34 34 35 36 37 38 39 41 42 43 44 45 46 47 47 48 50 51 52 53 51 49 49 45 42 26 22 27 32 34
19 21 23 24 26 27 28 29 29 31 32 32 33 34 35 36 37 38 39 40 41 43 44 45 47 48 49 48 49 51 54 54 52 50 50 48 47 49 51 27 23 27 30
17 19 20 22 24 26 27 28 28 30 31 32 32 33 35 36 37 38 40 41 42 44 45 46 47 49 50 51 52 53 54 54 53 53 52 54 55 55 53 51 26 24 26
16 16 17 20 23 25 26 27 27 28 30 31 32 33 35 37 38 39 40 41 42 44 46 47 49 50 51 52 54 55 54 55 53 53 53 56 61 60 58 58 47 23 22
13 13 15 18 21 24 26 27 27 26 28 29 30 32 34 36 38 39 41 42 44 45 47 49 50 51 52 54 55 56 56 57 55 54 55 58 63 61 61 64 59 38 22
12 12 14 17 20 22 24 25 25 25 26 27 28 30 33 35 38 39 41 43 45 47 49 50 51 53 54 56 57 58 57 58 57 56 58 62 64 63 62 62 61 59 29
8 10 13 15 17 21 22 23 23 23 24 26 27 29 32 34 37 39 41 43 45 48 49 51 53 54 55 57 59 60 60 59 60 59 60 65 64 63 62 58 61 58 58
7 7 9 11 14 18 20 20 21 22 23 25 26 29 32 35 38 40 42 44 47 48 51 52 54 55 56 57 59 61 61 62 62 61 61 64 63 61 59 62 62 60 57
6 3 5 7 10 13 16 18 20 21 21 24 26 29 31 34 37 40 42 45 47 50 51 53 55 57 59 60 61 61 62 62 62 61 61 62 62 61 61 61 61 61 60
7 4 3 3 6 9 12 14 16 19 21 23 25 27 30 34 38 40 43 45 48 51 53 55 57 59 61 61 61 60 62 61 60 58 58 61 62 61 63 62 62 61 60
11 8 5 2 2 5 8 11 13 16 20 22 25 28 30 33 36 39 43 46 49 51 54 56 58 60 62 62 61 61 62 60 59 58 58 59 60 63 65 63 65 64 63
13 12 7 5 2 2 5 8 10 14 18 21 24 27 30 33 36 39 43 47 50 52 54 56 58 60 62 61 61 60 60 57 58 58 56 56 60 65 66 67 67 67 66
15 12 10 8 5 3 2 5 9 13 17 20 23 26 29 33 36 39 43 47 50 53 54 57 59 61 62 62 61 60 57 54 56 57 56 56 60 65 66 69 67 68 68
17 17 13 11 9 6 4 3 7 11 15 19 22 25 29 33 36 39 44 48 50 53 56 59 62 65 67 66 64 63 56 53 55 54 55 56 59 63 65 70 68 70 70
20 18 16 14 12 9 7 5 6 10 14 17 21 24 28 32 35 39 43 46 49 54 57 60 63 66 69 68 63 59 55 53 55 52 56 58 61 65 66 69 68 70 70
22 20 17 16 13 11 9 7 8 11 15 17 20 23 27 31 35 39 43 47 49 54 59 61 64 66 69 67 60 55 52 48 52 53 56 58 62 68 69 71 68 68 70
23 22 21 20 17 15 14 14 13 14 16 18 20 22 26 31 35 39 43 46 50 56 60 62 61 67 72 72 60 57 53 44 54 56 57 59 66 71 72 70 68 68 68
29 26 24 23 21 20 18 17 18 13 19 18 17 21 24 29 33 38 41 45 49 55 60 63 64 64 68 72 66 59 64 53 55 52 61 62 67 72 72 71 68 68 68
34 31 29 27 24 21 18 15 14 18 16 21 19 23 26 29 32 36 40 44 49 54 58 61 62 64 67 66 67 60 65 64 67 56 58 67 70 69 70 68 66 67 66
40 34 31 29 26 23 20 20 20 21 19 20 17 19 23 27 31 36 41 43 48 52 56 59 60 63 62 66 58 60 55 57 64 69 63 66 75 67 72 67 64 66 63
41 39 34 31 28 25 22 21 21 21 21 15 16 17 21 27 31 36 38 43 48 51 53 56 59 61 61 60 59 57 57 56 56 65 75 79 74 67 71 64 66 61 60
43 40 36 33 31 28 25 23 23 21 19 18 17 18 22 24 30 34 36 42 45 48 50 53 55 58 59 59 58 57 58 58 62 65 69 78 73 65 66 65 63 58 62
Wind_Direction
95 87 79 78 76 69 64 59 50 42 39 39 35 33 33 32 31 30 29 28 27 28 29 28 26 21 17 14 13 12 12 11 10 9 6 6 10 12 13 12 11 8 4
95 85 79 78 74 65 60 53 45 39 34 29 25 24 25 27 26 23 19 17 15 20 22 22 18 14 8 6 5 5 7 7 4 4 1 3 9 13 15 13 11 8 6
84 77 76 78 70 62 53 47 41 33 28 26 23 20 18 19 14 12 10 8 4 7 6 6 8 4 1 360 358 358 358 360 359 357 358 1 6 17 16 18 19 15 11
82 77 77 75 65 58 49 43 38 35 31 23 20 20 20 17 14 9 7 5 2 359 357 357 358 359 -0 0 360 358 356 355 355 355 359 3 8 23 44 39 32 31 19
75 74 74 72 68 59 49 39 35 29 22 19 13 8 5 4 5 3 2 359 357 357 356 356 355 354 355 358 357 352 347 344 347 354 358 0 7 12 28 29 31 29 29
64 63 66 63 62 53 44 35 28 26 27 25 19 21 15 15 13 11 6 3 360 359 359 358 355 352 351 352 352 349 345 345 350 354 357 1 3 1 358 18 20 22 25
62 66 59 59 54 46 36 31 27 32 30 30 23 19 20 17 20 17 13 9 5 2 1 0 358 357 355 353 352 351 352 353 355 355 356 353 351 349 352 351 4 7 13
72 61 49 47 46 41 38 32 27 29 31 27 24 21 20 20 18 14 10 7 4 1 1 360 359 359 358 356 354 353 355 354 357 356 356 351 343 343 346 346 349 355 359
67 59 46 48 45 43 38 31 27 25 27 26 22 21 20 18 13 9 6 4 3 3 3 2 1 1 358 356 354 352 352 352 352 353 352 349 342 342 341 341 341 347 343
68 53 53 50 44 39 33 30 26 27 26 23 18 15 17 15 12 10 8 8 6 6 7 5 2 359 357 354 351 349 350 349 349 349 348 345 342 341 339 339 339 340 341
69 59 57 56 42 35 28 27 27 23 19 17 15 17 15 10 9 7 9 7 6 5 4 2 0 358 357 354 351 349 348 347 346 345 345 341 341 341 342 344 344 344 340
132 93 79 68 45 29 23 26 22 19 17 17 17 18 14 9 7 6 4 3 1 360 359 358 357 357 357 355 351 348 346 344 343 343 344 343 345 348 348 345 343 342 342
158 128 111 86 55 37 27 25 25 24 21 17 14 16 12 9 6 3 1 358 358 357 357 355 355 355 355 355 352 349 347 346 344 345 345 347 346 348 347 347 347 347 346
187 189 167 114 69 37 19 15 24 30 19 10 9 9 9 5 3 0 358 357 358 357 356 356 355 354 354 355 353 353 350 349 349 349 349 349 349 350 349 347 346 347 346
206 200 203 177 81 40 19 11 11 17 17 12 7 3 4 5 3 0 357 356 356 357 358 357 357 355 354 353 353 352 350 350 350 351 351 352 352 350 349 349 347 344 342
209 204 215 232 255 4 2 5 3 6 11 9 8 5 2 3 2 359 357 356 357 358 359 358 357 356 355 354 353 353 352 352 352 352 354 354 355 351 349 347 344 343 339
219 212 227 235 244 248 337 355 355 353 359 4 7 6 3 1 2 1 359 358 357 357 358 357 357 356 355 354 352 352 352 353 354 354 355 354 352 350 348 345 342 339 337
223 220 229 244 235 233 248 301 334 345 350 356 2 5 2 2 3 2 360 358 358 357 357 356 355 352 351 350 349 349 352 354 353 355 357 356 354 350 346 342 339 337 335
225 222 229 231 230 235 253 284 319 335 342 350 355 360 1 1 2 2 0 360 359 358 357 356 355 353 350 349 348 349 352 353 354 357 354 353 353 350 346 342 339 335 334
231 229 232 235 233 233 248 270 305 323 332 340 347 354 358 359 1 1 0 1 0 358 355 355 354 353 351 348 348 350 353 356 358 356 353 351 349 346 343 340 337 335 333
233 230 232 230 231 229 239 256 277 290 310 327 339 349 353 356 358 359 0 1 0 356 355 354 352 351 350 348 349 348 351 351 350 351 352 350 346 344 342 340 339 337 334
228 230 233 235 231 238 246 259 278 281 303 318 333 342 350 354 357 359 0 358 358 357 356 355 353 350 351 352 347 346 339 343 344 348 346 345 344 342 341 340 339 337 336
229 233 238 239 234 234 239 254 267 292 301 308 317 329 340 349 355 358 360 358 358 357 355 354 354 353 349 352 356 349 339 336 338 342 343 342 342 342 342 341 340 338 335
237 242 241 240 234 231 228 246 241 266 272 291 303 321 336 348 351 355 353 357 357 357 355 355 356 354 353 350 353 356 354 345 337 334 338 341 341 343 343 342 342 339 338
236 237 241 238 234 234 233 237 243 259 279 282 301 315 331 338 345 347 353 357 356 355 355 355 356 356 357 355 354 351 349 349 346 336 331 334 340 344 342 343 342 343 342
239 236 232 227 231 230 233 238 241 247 262 273 286 303 318 333 338 344 355 354 354 354 354 357 358 358 357 357 356 354 351 345 341 339 335 334 335 340 340 345 345 346 341